Information on these data can be found in provided Readme document
Contact Info: Zachary Fasnacht (zachary.fasnacht@ssaihq.com); Nickolay Krotkov (nickolay.a.krotkov@nasa.gov); Lok Lamsal (lok.lamsal@nasa.gov)

FillValue: -999.
ScaleFactor: 1e15
Units: molecules/cm^2

Date(yyyy-mm-dd),City,Country,LonCenter,LatCenter,BoundingCoordinates,Median,Q1,Q3,Mean,Baseline_Median,Baseline_Q1,Baseline_Q3,Baseline_Mean,NumGoodSamples,NumTotalSamples
2015-01-01,Managua,Nicaragua,-86.2362,12.115,[-86.7362 11.615 -85.7362 12.615],0.489,0.192,0.846,0.534,0.466,0.18,0.904,0.543,183.0,534.0
2015-01-02,Managua,Nicaragua,-86.2362,12.115,[-86.7362 11.615 -85.7362 12.615],0.529,0.211,0.877,0.562,0.493,0.199,0.941,0.562,167.0,544.0
2015-01-03,Managua,Nicaragua,-86.2362,12.115,[-86.7362 11.615 -85.7362 12.615],0.546,0.211,0.926,0.58,0.498,0.176,0.929,0.554,186.0,524.0
2015-01-04,Managua,Nicaragua,-86.2362,12.115,[-86.7362 11.615 -85.7362 12.615],0.529,0.211,0.936,0.577,0.466,0.168,0.932,0.557,171.0,546.0
2015-01-05,Managua,Nicaragua,-86.2362,12.115,[-86.7362 11.615 -85.7362 12.615],0.573,0.237,0.926,0.588,0.503,0.169,0.938,0.564,186.0,515.0
2015-01-06,Managua,Nicaragua,-86.2362,12.115,[-86.7362 11.615 -85.7362 12.615],0.546,0.207,0.846,0.547,0.499,0.159,0.953,0.559,168.0,545.0
2015-01-07,Managua,Nicaragua,-86.2362,12.115,[-86.7362 11.615 -85.7362 12.615],0.546,0.211,0.846,0.542,0.498,0.163,0.953,0.554,159.0,527.0
2015-01-08,Managua,Nicaragua,-86.2362,12.115,[-86.7362 11.615 -85.7362 12.615],0.549,0.215,0.846,0.549,0.487,0.121,0.918,0.541,147.0,549.0
2015-01-09,Managua,Nicaragua,-86.2362,12.115,[-86.7362 11.615 -85.7362 12.615],0.557,0.27,0.846,0.562,0.499,0.135,0.939,0.535,122.0,514.0
2015-01-10,Managua,Nicaragua,-86.2362,12.115,[-86.7362 11.615 -85.7362 12.615],0.549,0.223,0.846,0.563,0.485,0.124,0.936,0.533,134.0,511.0
2015-01-11,Managua,Nicaragua,-86.2362,12.115,[-86.7362 11.615 -85.7362 12.615],0.573,0.289,0.899,0.595,0.5,0.123,0.908,0.529,122.0,520.0
2015-01-12,Managua,Nicaragua,-86.2362,12.115,[-86.7362 11.615 -85.7362 12.615],0.557,0.27,0.873,0.543,0.492,0.112,0.892,0.509,143.0,498.0
2015-01-13,Managua,Nicaragua,-86.2362,12.115,[-86.7362 11.615 -85.7362 12.615],0.614,0.327,0.957,0.572,0.511,0.115,0.94,0.519,116.0,519.0
2015-01-14,Managua,Nicaragua,-86.2362,12.115,[-86.7362 11.615 -85.7362 12.615],0.488,0.127,0.813,0.47,0.475,0.083,0.872,0.489,143.0,501.0
2015-01-15,Managua,Nicaragua,-86.2362,12.115,[-86.7362 11.615 -85.7362 12.615],0.478,0.12,0.714,0.435,0.482,0.088,0.883,0.492,130.0,531.0
2015-01-16,Managua,Nicaragua,-86.2362,12.115,[-86.7362 11.615 -85.7362 12.615],0.446,0.085,0.691,0.395,0.477,0.094,0.874,0.496,126.0,512.0
2015-01-17,Managua,Nicaragua,-86.2362,12.115,[-86.7362 11.615 -85.7362 12.615],0.417,0.085,0.674,0.385,0.468,0.093,0.858,0.478,155.0,516.0
2015-01-18,Managua,Nicaragua,-86.2362,12.115,[-86.7362 11.615 -85.7362 12.615],0.399,0.075,0.636,0.34,0.482,0.092,0.859,0.487,136.0,522.0
2015-01-19,Managua,Nicaragua,-86.2362,12.115,[-86.7362 11.615 -85.7362 12.615],0.399,0.008,0.674,0.358,0.462,0.093,0.847,0.472,156.0,505.0
2015-01-20,Managua,Nicaragua,-86.2362,12.115,[-86.7362 11.615 -85.7362 12.615],0.301,-0.021,0.617,0.313,0.435,0.076,0.834,0.461,141.0,526.0
2015-01-21,Managua,Nicaragua,-86.2362,12.115,[-86.7362 11.615 -85.7362 12.615],0.338,-0.024,0.659,0.327,0.422,0.048,0.816,0.432,161.0,492.0
2015-01-22,Managua,Nicaragua,-86.2362,12.115,[-86.7362 11.615 -85.7362 12.615],0.298,-0.034,0.617,0.303,0.431,0.052,0.827,0.44,157.0,519.0
2015-01-23,Managua,Nicaragua,-86.2362,12.115,[-86.7362 11.615 -85.7362 12.615],0.301,-0.026,0.659,0.321,0.444,0.058,0.825,0.449,159.0,498.0
2015-01-24,Managua,Nicaragua,-86.2362,12.115,[-86.7362 11.615 -85.7362 12.615],0.338,-0.024,0.698,0.362,0.455,0.07,0.892,0.474,193.0,544.0
2015-01-25,Managua,Nicaragua,-86.2362,12.115,[-86.7362 11.615 -85.7362 12.615],0.37,-0.022,0.772,0.388,0.469,0.059,0.901,0.477,198.0,533.0
2015-01-26,Managua,Nicaragua,-86.2362,12.115,[-86.7362 11.615 -85.7362 12.615],0.389,-0.019,0.786,0.408,0.491,0.068,0.902,0.486,224.0,528.0
2015-01-27,Managua,Nicaragua,-86.2362,12.115,[-86.7362 11.615 -85.7362 12.615],0.356,-0.019,0.786,0.428,0.488,0.071,0.907,0.5,203.0,537.0
2015-01-28,Managua,Nicaragua,-86.2362,12.115,[-86.7362 11.615 -85.7362 12.615],0.37,-0.019,0.786,0.415,0.492,0.064,0.9,0.492,222.0,513.0
2015-01-29,Managua,Nicaragua,-86.2362,12.115,[-86.7362 11.615 -85.7362 12.615],0.414,-0.024,0.938,0.461,0.499,0.065,0.946,0.509,195.0,529.0
2015-01-30,Managua,Nicaragua,-86.2362,12.115,[-86.7362 11.615 -85.7362 12.615],0.418,-0.015,0.866,0.484,0.503,0.076,0.942,0.519,217.0,512.0
2015-01-31,Managua,Nicaragua,-86.2362,12.115,[-86.7362 11.615 -85.7362 12.615],0.423,-0.015,0.941,0.517,0.508,0.062,0.956,0.52,197.0,545.0
2015-02-01,Managua,Nicaragua,-86.2362,12.115,[-86.7362 11.615 -85.7362 12.615],0.509,0.036,0.945,0.547,0.534,0.086,0.941,0.533,176.0,527.0
2015-02-02,Managua,Nicaragua,-86.2362,12.115,[-86.7362 11.615 -85.7362 12.615],0.512,0.044,0.947,0.569,0.517,0.094,0.923,0.525,205.0,534.0
2015-02-03,Managua,Nicaragua,-86.2362,12.115,[-86.7362 11.615 -85.7362 12.615],0.512,0.054,0.945,0.576,0.538,0.099,0.958,0.543,185.0,540.0
2015-02-04,Managua,Nicaragua,-86.2362,12.115,[-86.7362 11.615 -85.7362 12.615],0.458,0.02,0.947,0.564,0.527,0.084,0.964,0.542,206.0,521.0
2015-02-05,Managua,Nicaragua,-86.2362,12.115,[-86.7362 11.615 -85.7362 12.615],0.472,0.034,0.947,0.586,0.538,0.111,0.956,0.559,186.0,541.0
2015-02-06,Managua,Nicaragua,-86.2362,12.115,[-86.7362 11.615 -85.7362 12.615],0.423,0.044,0.938,0.553,0.524,0.091,0.966,0.549,206.0,510.0
2015-02-07,Managua,Nicaragua,-86.2362,12.115,[-86.7362 11.615 -85.7362 12.615],0.423,0.054,0.992,0.573,0.51,0.094,0.971,0.547,196.0,541.0
2015-02-08,Managua,Nicaragua,-86.2362,12.115,[-86.7362 11.615 -85.7362 12.615],0.458,0.09,0.916,0.545,0.523,0.108,0.939,0.545,178.0,520.0
2015-02-09,Managua,Nicaragua,-86.2362,12.115,[-86.7362 11.615 -85.7362 12.615],0.415,0.092,0.905,0.525,0.508,0.131,0.935,0.551,195.0,542.0
2015-02-10,Managua,Nicaragua,-86.2362,12.115,[-86.7362 11.615 -85.7362 12.615],0.41,0.084,0.859,0.514,0.507,0.132,0.908,0.537,169.0,510.0
2015-02-11,Managua,Nicaragua,-86.2362,12.115,[-86.7362 11.615 -85.7362 12.615],0.423,0.09,0.916,0.542,0.515,0.112,0.92,0.553,196.0,504.0
2015-02-12,Managua,Nicaragua,-86.2362,12.115,[-86.7362 11.615 -85.7362 12.615],0.502,0.108,0.967,0.615,0.539,0.106,0.93,0.569,196.0,515.0
2015-02-13,Managua,Nicaragua,-86.2362,12.115,[-86.7362 11.615 -85.7362 12.615],0.527,0.108,0.926,0.602,0.553,0.118,0.939,0.585,212.0,494.0
2015-02-14,Managua,Nicaragua,-86.2362,12.115,[-86.7362 11.615 -85.7362 12.615],0.549,0.108,0.967,0.612,0.55,0.109,0.945,0.585,190.0,511.0
2015-02-15,Managua,Nicaragua,-86.2362,12.115,[-86.7362 11.615 -85.7362 12.615],0.524,0.133,0.908,0.576,0.549,0.098,0.945,0.576,218.0,488.0
2015-02-16,Managua,Nicaragua,-86.2362,12.115,[-86.7362 11.615 -85.7362 12.615],0.538,0.133,0.916,0.584,0.571,0.108,0.975,0.595,227.0,518.0
2015-02-17,Managua,Nicaragua,-86.2362,12.115,[-86.7362 11.615 -85.7362 12.615],0.539,0.166,0.916,0.575,0.599,0.121,1.018,0.618,215.0,499.0
2015-02-18,Managua,Nicaragua,-86.2362,12.115,[-86.7362 11.615 -85.7362 12.615],0.562,0.194,0.933,0.6,0.571,0.148,1.007,0.612,239.0,505.0
2015-02-19,Managua,Nicaragua,-86.2362,12.115,[-86.7362 11.615 -85.7362 12.615],0.599,0.247,0.967,0.637,0.602,0.164,1.028,0.648,239.0,511.0
2015-02-20,Managua,Nicaragua,-86.2362,12.115,[-86.7362 11.615 -85.7362 12.615],0.61,0.241,0.972,0.649,0.575,0.135,0.987,0.622,259.0,495.0
2015-02-21,Managua,Nicaragua,-86.2362,12.115,[-86.7362 11.615 -85.7362 12.615],0.658,0.276,0.994,0.689,0.574,0.13,0.986,0.619,250.0,517.0
2015-02-22,Managua,Nicaragua,-86.2362,12.115,[-86.7362 11.615 -85.7362 12.615],0.61,0.247,0.972,0.658,0.578,0.152,0.996,0.626,271.0,483.0
2015-02-23,Managua,Nicaragua,-86.2362,12.115,[-86.7362 11.615 -85.7362 12.615],0.61,0.272,0.994,0.672,0.577,0.167,0.986,0.618,255.0,512.0
2015-02-24,Managua,Nicaragua,-86.2362,12.115,[-86.7362 11.615 -85.7362 12.615],0.624,0.318,0.983,0.695,0.578,0.156,0.971,0.62,229.0,492.0
2015-02-25,Managua,Nicaragua,-86.2362,12.115,[-86.7362 11.615 -85.7362 12.615],0.624,0.276,0.973,0.677,0.569,0.161,0.98,0.616,264.0,537.0
2015-02-26,Managua,Nicaragua,-86.2362,12.115,[-86.7362 11.615 -85.7362 12.615],0.616,0.276,0.973,0.662,0.555,0.173,0.96,0.603,253.0,530.0
2015-02-27,Managua,Nicaragua,-86.2362,12.115,[-86.7362 11.615 -85.7362 12.615],0.61,0.276,0.973,0.632,0.556,0.163,0.955,0.592,250.0,527.0
2015-02-28,Managua,Nicaragua,-86.2362,12.115,[-86.7362 11.615 -85.7362 12.615],0.61,0.276,0.983,0.644,0.557,0.167,0.936,0.586,258.0,535.0
2015-03-01,Managua,Nicaragua,-86.2362,12.115,[-86.7362 11.615 -85.7362 12.615],0.565,0.243,0.973,0.606,0.553,0.176,0.926,0.581,274.0,511.0
2015-03-02,Managua,Nicaragua,-86.2362,12.115,[-86.7362 11.615 -85.7362 12.615],0.616,0.226,1.014,0.641,0.552,0.177,0.93,0.593,246.0,531.0
2015-03-03,Managua,Nicaragua,-86.2362,12.115,[-86.7362 11.615 -85.7362 12.615],0.547,0.187,0.941,0.575,0.523,0.172,0.893,0.567,250.0,512.0
2015-03-04,Managua,Nicaragua,-86.2362,12.115,[-86.7362 11.615 -85.7362 12.615],0.516,0.178,0.932,0.57,0.511,0.168,0.889,0.552,256.0,543.0
2015-03-05,Managua,Nicaragua,-86.2362,12.115,[-86.7362 11.615 -85.7362 12.615],0.505,0.167,0.87,0.551,0.5,0.158,0.885,0.543,246.0,525.0
2015-03-06,Managua,Nicaragua,-86.2362,12.115,[-86.7362 11.615 -85.7362 12.615],0.484,0.156,0.825,0.53,0.476,0.13,0.836,0.504,254.0,533.0
2015-03-07,Managua,Nicaragua,-86.2362,12.115,[-86.7362 11.615 -85.7362 12.615],0.484,0.158,0.82,0.503,0.49,0.156,0.843,0.517,250.0,539.0
2015-03-08,Managua,Nicaragua,-86.2362,12.115,[-86.7362 11.615 -85.7362 12.615],0.479,0.103,0.82,0.497,0.507,0.15,0.846,0.526,259.0,520.0
2015-03-09,Managua,Nicaragua,-86.2362,12.115,[-86.7362 11.615 -85.7362 12.615],0.484,0.103,0.863,0.511,0.499,0.148,0.848,0.517,249.0,540.0
2015-03-10,Managua,Nicaragua,-86.2362,12.115,[-86.7362 11.615 -85.7362 12.615],0.505,0.116,0.85,0.516,0.492,0.13,0.863,0.518,265.0,509.0
2015-03-11,Managua,Nicaragua,-86.2362,12.115,[-86.7362 11.615 -85.7362 12.615],0.471,0.086,0.849,0.487,0.465,0.098,0.854,0.493,257.0,538.0
2015-03-12,Managua,Nicaragua,-86.2362,12.115,[-86.7362 11.615 -85.7362 12.615],0.479,0.103,0.864,0.496,0.474,0.104,0.87,0.505,236.0,516.0
2015-03-13,Managua,Nicaragua,-86.2362,12.115,[-86.7362 11.615 -85.7362 12.615],0.471,0.086,0.863,0.493,0.467,0.09,0.864,0.501,256.0,538.0
2015-03-14,Managua,Nicaragua,-86.2362,12.115,[-86.7362 11.615 -85.7362 12.615],0.465,0.086,0.863,0.488,0.481,0.093,0.863,0.496,240.0,503.0
2015-03-15,Managua,Nicaragua,-86.2362,12.115,[-86.7362 11.615 -85.7362 12.615],0.479,0.103,0.863,0.493,0.457,0.091,0.844,0.485,244.0,499.0
2015-03-16,Managua,Nicaragua,-86.2362,12.115,[-86.7362 11.615 -85.7362 12.615],0.543,0.179,0.916,0.553,0.464,0.098,0.846,0.49,255.0,510.0
2015-03-17,Managua,Nicaragua,-86.2362,12.115,[-86.7362 11.615 -85.7362 12.615],0.513,0.186,0.865,0.546,0.468,0.108,0.85,0.494,276.0,489.0
2015-03-18,Managua,Nicaragua,-86.2362,12.115,[-86.7362 11.615 -85.7362 12.615],0.563,0.188,1.015,0.588,0.48,0.098,0.883,0.5,255.0,509.0
2015-03-19,Managua,Nicaragua,-86.2362,12.115,[-86.7362 11.615 -85.7362 12.615],0.538,0.185,0.882,0.537,0.461,0.1,0.854,0.488,257.0,487.0
2015-03-20,Managua,Nicaragua,-86.2362,12.115,[-86.7362 11.615 -85.7362 12.615],0.538,0.185,0.892,0.541,0.481,0.117,0.872,0.504,268.0,517.0
2015-03-21,Managua,Nicaragua,-86.2362,12.115,[-86.7362 11.615 -85.7362 12.615],0.513,0.188,0.861,0.52,0.489,0.127,0.894,0.519,259.0,498.0
2015-03-22,Managua,Nicaragua,-86.2362,12.115,[-86.7362 11.615 -85.7362 12.615],0.528,0.188,0.858,0.528,0.495,0.128,0.9,0.526,270.0,503.0
2015-03-23,Managua,Nicaragua,-86.2362,12.115,[-86.7362 11.615 -85.7362 12.615],0.513,0.188,0.828,0.519,0.508,0.131,0.894,0.531,274.0,511.0
2015-03-24,Managua,Nicaragua,-86.2362,12.115,[-86.7362 11.615 -85.7362 12.615],0.542,0.19,0.864,0.539,0.546,0.159,0.91,0.551,287.0,498.0
2015-03-25,Managua,Nicaragua,-86.2362,12.115,[-86.7362 11.615 -85.7362 12.615],0.513,0.194,0.864,0.537,0.545,0.164,0.906,0.55,280.0,518.0
2015-03-26,Managua,Nicaragua,-86.2362,12.115,[-86.7362 11.615 -85.7362 12.615],0.552,0.233,0.864,0.549,0.579,0.196,0.922,0.569,299.0,485.0
2015-03-27,Managua,Nicaragua,-86.2362,12.115,[-86.7362 11.615 -85.7362 12.615],0.543,0.255,0.858,0.551,0.592,0.212,0.921,0.576,285.0,516.0
2015-03-28,Managua,Nicaragua,-86.2362,12.115,[-86.7362 11.615 -85.7362 12.615],0.583,0.284,0.846,0.568,0.606,0.223,0.925,0.585,259.0,492.0
2015-03-29,Managua,Nicaragua,-86.2362,12.115,[-86.7362 11.615 -85.7362 12.615],0.578,0.283,0.858,0.568,0.607,0.224,0.933,0.592,285.0,537.0
2015-03-30,Managua,Nicaragua,-86.2362,12.115,[-86.7362 11.615 -85.7362 12.615],0.586,0.293,0.828,0.574,0.601,0.226,0.921,0.592,273.0,531.0
2015-03-31,Managua,Nicaragua,-86.2362,12.115,[-86.7362 11.615 -85.7362 12.615],0.578,0.276,0.824,0.551,0.606,0.221,0.914,0.589,272.0,524.0
2015-04-01,Managua,Nicaragua,-86.2362,12.115,[-86.7362 11.615 -85.7362 12.615],0.591,0.278,0.858,0.575,0.604,0.225,0.919,0.591,277.0,531.0
2015-04-02,Managua,Nicaragua,-86.2362,12.115,[-86.7362 11.615 -85.7362 12.615],0.586,0.248,0.858,0.57,0.61,0.239,0.916,0.596,298.0,509.0
2015-04-03,Managua,Nicaragua,-86.2362,12.115,[-86.7362 11.615 -85.7362 12.615],0.617,0.293,0.983,0.617,0.63,0.254,0.955,0.618,273.0,531.0
2015-04-04,Managua,Nicaragua,-86.2362,12.115,[-86.7362 11.615 -85.7362 12.615],0.64,0.337,0.944,0.626,0.631,0.26,0.931,0.609,272.0,510.0
2015-04-05,Managua,Nicaragua,-86.2362,12.115,[-86.7362 11.615 -85.7362 12.615],0.651,0.351,1.002,0.647,0.633,0.279,0.95,0.622,276.0,540.0
2015-04-06,Managua,Nicaragua,-86.2362,12.115,[-86.7362 11.615 -85.7362 12.615],0.692,0.388,1.002,0.675,0.645,0.29,0.984,0.637,267.0,522.0
2015-04-07,Managua,Nicaragua,-86.2362,12.115,[-86.7362 11.615 -85.7362 12.615],0.704,0.397,1.019,0.702,0.624,0.307,0.949,0.64,272.0,526.0
2015-04-08,Managua,Nicaragua,-86.2362,12.115,[-86.7362 11.615 -85.7362 12.615],0.704,0.402,0.993,0.699,0.611,0.297,0.955,0.642,265.0,529.0
2015-04-09,Managua,Nicaragua,-86.2362,12.115,[-86.7362 11.615 -85.7362 12.615],0.704,0.408,0.994,0.714,0.617,0.306,0.956,0.653,279.0,515.0
2015-04-10,Managua,Nicaragua,-86.2362,12.115,[-86.7362 11.615 -85.7362 12.615],0.717,0.441,1.034,0.732,0.626,0.314,0.986,0.671,270.0,537.0
2015-04-11,Managua,Nicaragua,-86.2362,12.115,[-86.7362 11.615 -85.7362 12.615],0.71,0.402,0.998,0.71,0.618,0.293,0.99,0.67,287.0,506.0
2015-04-12,Managua,Nicaragua,-86.2362,12.115,[-86.7362 11.615 -85.7362 12.615],0.714,0.362,0.998,0.707,0.65,0.331,1.01,0.697,277.0,537.0
2015-04-13,Managua,Nicaragua,-86.2362,12.115,[-86.7362 11.615 -85.7362 12.615],0.714,0.402,1.017,0.724,0.658,0.34,1.053,0.719,267.0,516.0
2015-04-14,Managua,Nicaragua,-86.2362,12.115,[-86.7362 11.615 -85.7362 12.615],0.71,0.392,1.034,0.733,0.663,0.357,1.094,0.739,286.0,536.0
2015-04-15,Managua,Nicaragua,-86.2362,12.115,[-86.7362 11.615 -85.7362 12.615],0.726,0.415,1.034,0.748,0.658,0.337,1.07,0.73,260.0,505.0
2015-04-16,Managua,Nicaragua,-86.2362,12.115,[-86.7362 11.615 -85.7362 12.615],0.714,0.402,1.034,0.739,0.659,0.342,1.072,0.732,260.0,503.0
2015-04-17,Managua,Nicaragua,-86.2362,12.115,[-86.7362 11.615 -85.7362 12.615],0.766,0.405,1.054,0.763,0.662,0.344,1.073,0.729,266.0,509.0
2015-04-18,Managua,Nicaragua,-86.2362,12.115,[-86.7362 11.615 -85.7362 12.615],0.714,0.38,1.034,0.727,0.654,0.308,1.06,0.714,287.0,485.0
2015-04-19,Managua,Nicaragua,-86.2362,12.115,[-86.7362 11.615 -85.7362 12.615],0.692,0.368,1.075,0.735,0.664,0.33,1.087,0.731,263.0,505.0
2015-04-20,Managua,Nicaragua,-86.2362,12.115,[-86.7362 11.615 -85.7362 12.615],0.625,0.33,0.968,0.663,0.658,0.312,1.066,0.714,261.0,487.0
2015-04-21,Managua,Nicaragua,-86.2362,12.115,[-86.7362 11.615 -85.7362 12.615],0.61,0.312,0.968,0.653,0.666,0.301,1.075,0.713,259.0,519.0
2015-04-22,Managua,Nicaragua,-86.2362,12.115,[-86.7362 11.615 -85.7362 12.615],0.569,0.329,0.941,0.645,0.687,0.292,1.105,0.72,230.0,503.0
2015-04-23,Managua,Nicaragua,-86.2362,12.115,[-86.7362 11.615 -85.7362 12.615],0.567,0.323,0.922,0.637,0.687,0.31,1.075,0.72,213.0,508.0
2015-04-24,Managua,Nicaragua,-86.2362,12.115,[-86.7362 11.615 -85.7362 12.615],0.54,0.26,0.941,0.627,0.688,0.31,1.092,0.72,201.0,512.0
2015-04-25,Managua,Nicaragua,-86.2362,12.115,[-86.7362 11.615 -85.7362 12.615],0.616,0.322,1.017,0.68,0.714,0.33,1.091,0.729,210.0,493.0
2015-04-26,Managua,Nicaragua,-86.2362,12.115,[-86.7362 11.615 -85.7362 12.615],0.625,0.328,1.054,0.703,0.707,0.335,1.092,0.727,204.0,513.0
2015-04-27,Managua,Nicaragua,-86.2362,12.115,[-86.7362 11.615 -85.7362 12.615],0.567,0.302,1.017,0.675,0.672,0.289,1.071,0.696,222.0,482.0
2015-04-28,Managua,Nicaragua,-86.2362,12.115,[-86.7362 11.615 -85.7362 12.615],0.54,0.247,0.97,0.656,0.669,0.293,1.062,0.692,206.0,511.0
2015-04-29,Managua,Nicaragua,-86.2362,12.115,[-86.7362 11.615 -85.7362 12.615],0.577,0.261,0.992,0.692,0.69,0.283,1.086,0.707,185.0,496.0
2015-04-30,Managua,Nicaragua,-86.2362,12.115,[-86.7362 11.615 -85.7362 12.615],0.616,0.263,1.022,0.698,0.719,0.318,1.122,0.737,221.0,542.0
2015-05-01,Managua,Nicaragua,-86.2362,12.115,[-86.7362 11.615 -85.7362 12.615],0.574,0.302,0.989,0.696,0.706,0.344,1.123,0.745,211.0,528.0
2015-05-02,Managua,Nicaragua,-86.2362,12.115,[-86.7362 11.615 -85.7362 12.615],0.574,0.263,0.989,0.688,0.708,0.33,1.123,0.754,210.0,528.0
2015-05-03,Managua,Nicaragua,-86.2362,12.115,[-86.7362 11.615 -85.7362 12.615],0.63,0.302,1.017,0.722,0.754,0.381,1.147,0.786,208.0,536.0
2015-05-04,Managua,Nicaragua,-86.2362,12.115,[-86.7362 11.615 -85.7362 12.615],0.574,0.26,0.989,0.682,0.728,0.366,1.127,0.768,223.0,511.0
2015-05-05,Managua,Nicaragua,-86.2362,12.115,[-86.7362 11.615 -85.7362 12.615],0.693,0.346,1.243,0.778,0.762,0.383,1.192,0.796,201.0,530.0
2015-05-06,Managua,Nicaragua,-86.2362,12.115,[-86.7362 11.615 -85.7362 12.615],0.608,0.26,1.017,0.697,0.725,0.347,1.145,0.767,205.0,512.0
2015-05-07,Managua,Nicaragua,-86.2362,12.115,[-86.7362 11.615 -85.7362 12.615],0.608,0.26,1.023,0.698,0.716,0.35,1.153,0.777,224.0,541.0
2015-05-08,Managua,Nicaragua,-86.2362,12.115,[-86.7362 11.615 -85.7362 12.615],0.61,0.26,1.042,0.713,0.718,0.347,1.161,0.782,231.0,524.0
2015-05-09,Managua,Nicaragua,-86.2362,12.115,[-86.7362 11.615 -85.7362 12.615],0.608,0.255,1.023,0.687,0.728,0.34,1.133,0.774,251.0,530.0
2015-05-10,Managua,Nicaragua,-86.2362,12.115,[-86.7362 11.615 -85.7362 12.615],0.559,0.211,0.944,0.622,0.726,0.337,1.119,0.768,236.0,538.0
2015-05-11,Managua,Nicaragua,-86.2362,12.115,[-86.7362 11.615 -85.7362 12.615],0.559,0.217,0.944,0.617,0.755,0.354,1.123,0.778,231.0,522.0
2015-05-12,Managua,Nicaragua,-86.2362,12.115,[-86.7362 11.615 -85.7362 12.615],0.577,0.217,0.989,0.644,0.765,0.336,1.125,0.774,223.0,544.0
2015-05-13,Managua,Nicaragua,-86.2362,12.115,[-86.7362 11.615 -85.7362 12.615],0.565,0.201,0.944,0.629,0.725,0.326,1.113,0.764,243.0,513.0
2015-05-14,Managua,Nicaragua,-86.2362,12.115,[-86.7362 11.615 -85.7362 12.615],0.525,0.185,0.901,0.567,0.703,0.316,1.095,0.741,229.0,535.0
2015-05-15,Managua,Nicaragua,-86.2362,12.115,[-86.7362 11.615 -85.7362 12.615],0.519,0.191,0.877,0.562,0.704,0.316,1.088,0.738,197.0,519.0
2015-05-16,Managua,Nicaragua,-86.2362,12.115,[-86.7362 11.615 -85.7362 12.615],0.504,0.184,0.886,0.548,0.693,0.301,1.06,0.716,207.0,544.0
2015-05-17,Managua,Nicaragua,-86.2362,12.115,[-86.7362 11.615 -85.7362 12.615],0.491,0.182,0.877,0.535,0.694,0.304,1.039,0.711,181.0,509.0
2015-05-18,Managua,Nicaragua,-86.2362,12.115,[-86.7362 11.615 -85.7362 12.615],0.455,0.185,0.861,0.54,0.679,0.302,1.016,0.705,174.0,508.0
2015-05-19,Managua,Nicaragua,-86.2362,12.115,[-86.7362 11.615 -85.7362 12.615],0.518,0.201,0.944,0.608,0.688,0.315,1.039,0.716,186.0,517.0
2015-05-20,Managua,Nicaragua,-86.2362,12.115,[-86.7362 11.615 -85.7362 12.615],0.518,0.201,0.944,0.603,0.686,0.323,1.04,0.718,194.0,492.0
2015-05-21,Managua,Nicaragua,-86.2362,12.115,[-86.7362 11.615 -85.7362 12.615],0.58,0.247,1.007,0.658,0.705,0.336,1.057,0.732,174.0,509.0
2015-05-22,Managua,Nicaragua,-86.2362,12.115,[-86.7362 11.615 -85.7362 12.615],0.525,0.196,0.932,0.599,0.691,0.315,1.068,0.707,169.0,490.0
2015-05-23,Managua,Nicaragua,-86.2362,12.115,[-86.7362 11.615 -85.7362 12.615],0.519,0.201,0.915,0.578,0.689,0.243,1.062,0.696,182.0,523.0
2015-05-24,Managua,Nicaragua,-86.2362,12.115,[-86.7362 11.615 -85.7362 12.615],0.559,0.263,0.966,0.616,0.7,0.289,1.09,0.716,159.0,504.0
2015-05-25,Managua,Nicaragua,-86.2362,12.115,[-86.7362 11.615 -85.7362 12.615],0.569,0.282,0.97,0.632,0.656,0.266,1.048,0.681,173.0,508.0
2015-05-26,Managua,Nicaragua,-86.2362,12.115,[-86.7362 11.615 -85.7362 12.615],0.569,0.274,0.971,0.624,0.624,0.24,1.024,0.65,184.0,515.0
2015-05-27,Managua,Nicaragua,-86.2362,12.115,[-86.7362 11.615 -85.7362 12.615],0.632,0.282,1.064,0.686,0.659,0.273,1.051,0.688,187.0,497.0
2015-05-28,Managua,Nicaragua,-86.2362,12.115,[-86.7362 11.615 -85.7362 12.615],0.695,0.301,1.08,0.709,0.639,0.26,1.016,0.656,172.0,520.0
2015-05-29,Managua,Nicaragua,-86.2362,12.115,[-86.7362 11.615 -85.7362 12.615],0.695,0.301,1.071,0.711,0.639,0.266,1.026,0.661,181.0,489.0
2015-05-30,Managua,Nicaragua,-86.2362,12.115,[-86.7362 11.615 -85.7362 12.615],0.695,0.283,1.071,0.706,0.636,0.251,1.022,0.656,177.0,512.0
2015-05-31,Managua,Nicaragua,-86.2362,12.115,[-86.7362 11.615 -85.7362 12.615],0.708,0.304,1.071,0.721,0.65,0.258,1.035,0.673,151.0,494.0
2015-06-01,Managua,Nicaragua,-86.2362,12.115,[-86.7362 11.615 -85.7362 12.615],0.708,0.304,1.071,0.721,0.651,0.269,1.04,0.674,151.0,540.0
2015-06-02,Managua,Nicaragua,-86.2362,12.115,[-86.7362 11.615 -85.7362 12.615],0.708,0.283,1.071,0.699,0.624,0.208,0.988,0.632,149.0,528.0
2015-06-03,Managua,Nicaragua,-86.2362,12.115,[-86.7362 11.615 -85.7362 12.615],0.695,0.282,1.071,0.674,0.616,0.21,0.976,0.625,125.0,531.0
2015-06-04,Managua,Nicaragua,-86.2362,12.115,[-86.7362 11.615 -85.7362 12.615],0.708,0.282,1.071,0.686,0.623,0.203,0.967,0.621,117.0,541.0
2015-06-05,Managua,Nicaragua,-86.2362,12.115,[-86.7362 11.615 -85.7362 12.615],0.632,0.282,1.061,0.654,0.632,0.22,0.995,0.63,127.0,517.0
2015-06-06,Managua,Nicaragua,-86.2362,12.115,[-86.7362 11.615 -85.7362 12.615],0.751,0.37,1.101,0.735,0.63,0.232,0.982,0.635,113.0,534.0
2015-06-07,Managua,Nicaragua,-86.2362,12.115,[-86.7362 11.615 -85.7362 12.615],0.751,0.426,1.108,0.747,0.609,0.247,0.972,0.627,117.0,512.0
2015-06-08,Managua,Nicaragua,-86.2362,12.115,[-86.7362 11.615 -85.7362 12.615],0.751,0.387,1.108,0.756,0.619,0.259,1.009,0.645,131.0,543.0
2015-06-09,Managua,Nicaragua,-86.2362,12.115,[-86.7362 11.615 -85.7362 12.615],0.687,0.387,1.08,0.728,0.596,0.242,0.978,0.643,130.0,527.0
2015-06-10,Managua,Nicaragua,-86.2362,12.115,[-86.7362 11.615 -85.7362 12.615],0.693,0.426,1.1,0.75,0.589,0.233,0.942,0.633,138.0,532.0
2015-06-11,Managua,Nicaragua,-86.2362,12.115,[-86.7362 11.615 -85.7362 12.615],0.604,0.303,0.899,0.635,0.563,0.201,0.925,0.604,143.0,538.0
2015-06-12,Managua,Nicaragua,-86.2362,12.115,[-86.7362 11.615 -85.7362 12.615],0.604,0.311,0.899,0.645,0.615,0.237,0.962,0.637,144.0,519.0
2015-06-13,Managua,Nicaragua,-86.2362,12.115,[-86.7362 11.615 -85.7362 12.615],0.576,0.303,0.948,0.618,0.6,0.224,0.995,0.64,142.0,542.0
2015-06-14,Managua,Nicaragua,-86.2362,12.115,[-86.7362 11.615 -85.7362 12.615],0.576,0.303,0.988,0.619,0.601,0.22,0.984,0.633,145.0,512.0
2015-06-15,Managua,Nicaragua,-86.2362,12.115,[-86.7362 11.615 -85.7362 12.615],0.576,0.303,0.988,0.619,0.614,0.226,0.996,0.642,145.0,540.0
2015-06-16,Managua,Nicaragua,-86.2362,12.115,[-86.7362 11.615 -85.7362 12.615],0.586,0.303,0.948,0.611,0.589,0.2,1.003,0.631,154.0,521.0
2015-06-17,Managua,Nicaragua,-86.2362,12.115,[-86.7362 11.615 -85.7362 12.615],0.588,0.305,0.899,0.621,0.609,0.248,1.005,0.66,169.0,545.0
2015-06-18,Managua,Nicaragua,-86.2362,12.115,[-86.7362 11.615 -85.7362 12.615],0.578,0.311,0.899,0.621,0.596,0.218,0.98,0.638,166.0,508.0
2015-06-19,Managua,Nicaragua,-86.2362,12.115,[-86.7362 11.615 -85.7362 12.615],0.578,0.303,0.909,0.616,0.589,0.218,0.98,0.633,191.0,507.0